Location: Sternwarte-Kraichtal
(49.1689°N, 8.6996°E)
Time: 20:11:42
(UTC+02:00)

Vanguard 2 Rocket - Pass Details

Date: 29 May 2022
Orbit: 553 x 3323 km, 32.9° (Epoch: 02 July)

Event Time Altitude Azimuth Distance (km) Brightness Sun altitude
Rises 17:44:31 0° 265° (W) 7,125 12.6 32.1°
Reaches altitude 10° 17:50:17 10° 258° (WSW) 5,842 12.5 31.2°
Maximum altitude 18:04:15 34° 203° (SSW) 3,254 10.3 28.9°
Drops below altitude 10° 18:13:26 10° 144° (SE) 3,822 9.8 27.4°
Sets 18:16:20 0° 134° (SE) 4,465 10.0 26.9°
